Weather History for KHFF - January, 2014

Change the Weather History Date:

Thursday, January 2, 2014

  Actual Average Record
Temperature  
Mean Temperature 45 °F -  
Max Temperature 50 °F 54 °F 66 °F (2011)
Min Temperature 40 °F 32 °F 20 °F (2009)
Degree Days  
Heating Degree Days 20    
Moisture  
Dew Point 45 °F    
Average Humidity 98    
Maximum Humidity 100    
Minimum Humidity 78    
Precipitation  
Precipitation 0.30 in - - ()
Sea Level Pressure  
Sea Level Pressure 29.84 in    
Wind  
Wind Speed 4 mph (SSW)    
Max Wind Speed 15 mph    
Max Gust Speed 22 mph    
Visibility 6 miles    
Events Rain    
Averages and records for this station are not official NWS values.
T = Trace of Precipitation, MM = Missing Value Source: NWS Daily Summary

Daily Weather History Graph

Daily Weather History Graph

Search for Another Location

Airport or City:

Trip Planner

Search our weather history database for the weather conditions in past years. The results will help you decide how hot, cold, wet, or windy it might be!

Date:

Astronomy

Jan. 02, 2014 Rise Set
Actual Time 7:26 AM EST 5:18 PM EST
Civil Twilight 6:58 AM EST 5:46 PM EST
Nautical Twilight 6:26 AM EST 6:17 PM EST
Astronomical Twilight 5:55 AM EST 6:48 PM EST
Moon 8:10 AM EST (1/2) 7:07 PM EST (1/2)
Length of Visible Light 10h 47m
Length of Day
9h 51m
New Moon, 2% of the Moon is Illuminated
Jan 2
New Moon
Jan 7
First Quarter
Jan 15
Full
Jan 24
Last Quarter
Jan 30
New

Hourly Weather History & Observations

Time (EST) Temp. Windchill Dew Point Humidity Pressure Visibility Wind Dir Wind Speed Gust Speed Precip Events Conditions
12:56 AM 41.0 °F 39.0 °F 38.8 °F 92% 30.14 in 12.0 mi NNW 3.5 mph - N/A   Mostly Cloudy
1:56 AM 41.2 °F 39.2 °F 39.2 °F 93% 30.14 in 12.0 mi NNW 3.5 mph - N/A   Mostly Cloudy
2:14 AM 41.0 °F 39.0 °F 39.2 °F 93% 30.13 in 12.0 mi NNW 3.5 mph - N/A Rain Light Rain
2:56 AM 41.4 °F - 39.4 °F 93% 30.14 in 12.0 mi WSW 2.3 mph - N/A Rain Light Rain Showers
3:56 AM 41.2 °F - 39.6 °F 94% 30.10 in 12.0 mi Variable 1.2 mph - 0.01 in Rain Light Rain
4:56 AM 40.8 °F 38.8 °F 40.1 °F 97% 30.06 in 12.0 mi West 3.5 mph - N/A Rain Light Rain Showers
4:59 AM 41.0 °F - 41.0 °F 100% 30.03 in 11.0 mi Calm Calm - N/A   Mostly Cloudy
5:23 AM 41.0 °F - 41.0 °F 100% 30.03 in 10.0 mi NW 1.2 mph - N/A Rain Light Rain Showers
5:38 AM 41.0 °F - 41.0 °F 100% 30.04 in 8.0 mi WNW 1.2 mph - N/A Rain Light Rain Showers
5:49 AM 41.0 °F - 41.0 °F 100% 30.03 in 8.0 mi South 1.2 mph - N/A Rain Light Rain Showers
5:54 AM 41.0 °F - 41.0 °F 100% 30.04 in 8.0 mi South 2.3 mph - N/A Rain Light Rain Showers
5:56 AM 41.0 °F - 40.3 °F 97% 30.06 in 8.0 mi South 2.3 mph - N/A Rain Light Rain Showers
6:31 AM 41.0 °F - 41.0 °F 100% 30.03 in 10.0 mi West 2.3 mph - N/A Rain Light Rain Showers
6:32 AM 41.0 °F - 41.0 °F 100% 30.03 in 10.0 mi West 2.3 mph - N/A   Mostly Cloudy
6:39 AM 41.0 °F - 41.0 °F 100% 30.02 in 10.0 mi Calm Calm - N/A Rain Light Rain Showers
6:49 AM 41.0 °F - 41.0 °F 100% 30.01 in 10.0 mi WNW 2.3 mph - N/A Rain Light Rain Showers
6:56 AM 41.7 °F - 41.0 °F 97% 30.01 in 9.0 mi Calm Calm - 0.01 in Rain Light Rain Showers
7:11 AM 41.0 °F - 41.0 °F 100% 30.01 in 9.0 mi South 2.3 mph - N/A Rain Light Rain Showers
7:46 AM 41.0 °F - 41.0 °F 100% 29.98 in 6.0 mi ENE 2.3 mph - N/A   Overcast
7:47 AM 41.0 °F - 41.0 °F 100% 29.98 in 6.0 mi ENE 2.3 mph - N/A Rain Light Rain Showers
7:56 AM 41.5 °F 39.6 °F 41.2 °F 99% 29.99 in 5.0 mi SE 3.5 mph - N/A Rain Light Rain Showers
8:47 AM 42.8 °F - 42.8 °F 100% 29.97 in 4.0 mi NNW 2.3 mph - N/A   Overcast
8:56 AM 42.3 °F - 41.9 °F 99% 29.99 in 5.0 mi NW 2.3 mph - N/A   Overcast
9:16 AM 42.8 °F - 42.8 °F 100% 29.97 in 2.2 mi South 2.3 mph - N/A   Overcast
9:21 AM 42.8 °F 41.1 °F 42.8 °F 100% 29.96 in 1.9 mi South 3.5 mph - N/A   Overcast
9:26 AM 42.8 °F 41.1 °F 42.8 °F 100% 29.95 in 1.6 mi SSE 3.5 mph - N/A   Overcast
9:28 AM 42.8 °F 41.1 °F 42.8 °F 100% 29.95 in 1.6 mi SSE 3.5 mph - N/A Rain Light Rain Showers
9:38 AM 42.8 °F - 42.8 °F 100% 29.96 in 1.4 mi South 1.2 mph - N/A Rain Light Rain Showers
9:56 AM 43.9 °F - 43.9 °F 100% 29.97 in 1.4 mi Variable 1.2 mph - N/A Rain Light Rain Showers
10:01 AM 44.6 °F - 44.6 °F 100% 29.95 in 1.6 mi Variable 2.3 mph - N/A Rain Light Rain Showers
10:06 AM 44.6 °F - 44.6 °F 100% 29.96 in 1.9 mi West 2.3 mph - N/A Rain Light Rain Showers
10:08 AM 44.6 °F - 44.6 °F 100% 29.96 in 2.0 mi WSW 2.3 mph - N/A   Mostly Cloudy
10:43 AM 44.6 °F - 44.6 °F 100% 29.92 in 1.9 mi South 2.3 mph - N/A   Overcast
10:55 AM 44.6 °F - 44.6 °F 100% 29.91 in 1.9 mi SSE 1.2 mph - N/A Rain Light Rain
10:56 AM 45.0 °F - 44.6 °F 99% 29.92 in 1.9 mi SSE 1.2 mph - N/A Rain Light Rain
11:01 AM 44.6 °F - 44.6 °F 100% 29.91 in 2.0 mi SE 2.3 mph - N/A Rain Light Rain
11:21 AM 46.4 °F - 44.6 °F 93% 29.89 in 3.0 mi Calm Calm - N/A Rain Light Rain
11:26 AM 46.4 °F - 44.6 °F 93% 29.88 in 2.8 mi SE 2.3 mph - N/A Rain Light Rain
11:41 AM 46.4 °F - 46.4 °F 100% 29.88 in 3.0 mi SSW 2.3 mph - N/A Rain Light Rain
11:56 AM 46.8 °F - 46.4 °F 99% 29.88 in 5.0 mi SW 3.5 mph - N/A Rain Light Rain Showers
12:24 PM 48.2 °F - 46.4 °F 93% 29.83 in 6.0 mi South 4.6 mph - N/A   Overcast
12:56 PM 47.7 °F - 46.6 °F 96% 29.81 in 8.0 mi SSW 4.6 mph - N/A   Mostly Cloudy
1:21 PM 48.2 °F - 46.4 °F 93% 29.79 in 7.0 mi South 6.9 mph - N/A   Mostly Cloudy
1:56 PM 48.4 °F - 47.3 °F 96% 29.77 in 7.0 mi South 5.8 mph - N/A   Mostly Cloudy
2:04 PM 48.2 °F - 48.2 °F 100% 29.76 in 5.0 mi South 6.9 mph - N/A Rain Light Rain
2:09 PM 48.2 °F - 48.2 °F 100% 29.75 in 4.0 mi South 6.9 mph - N/A   Light Drizzle
2:14 PM 48.2 °F - 48.2 °F 100% 29.75 in 2.8 mi South 8.1 mph - N/A   Light Drizzle
2:34 PM 48.2 °F - 48.2 °F 100% 29.74 in 3.0 mi South 8.1 mph - N/A   Light Drizzle
2:54 PM 48.2 °F - 48.2 °F 100% 29.73 in 2.8 mi South 4.6 mph - N/A   Overcast
2:56 PM 48.6 °F - 47.7 °F 97% 29.74 in 3.0 mi South 4.6 mph - N/A   Overcast
3:17 PM 48.2 °F - 48.2 °F 100% 29.72 in 4.0 mi SSE 4.6 mph - N/A Rain Light Rain Showers
3:22 PM 48.2 °F - 48.2 °F 100% 29.72 in 3.0 mi South 4.6 mph - N/A Rain Light Rain Showers
3:27 PM 48.2 °F - 48.2 °F 100% 29.72 in 2.2 mi SSE 5.8 mph - N/A Rain Rain Showers
3:32 PM 48.2 °F - 48.2 °F 100% 29.72 in 1.5 mi South 4.6 mph - N/A Rain Rain Showers
3:37 PM 48.2 °F - 48.2 °F 100% 29.71 in 1.1 mi South 4.6 mph - N/A Rain Rain Showers
3:42 PM 48.2 °F - 48.2 °F 100% 29.71 in 1.0 mi South 5.8 mph - N/A Rain Light Rain
3:56 PM 48.2 °F - 47.5 °F 97% 29.71 in 1.1 mi South 6.9 mph - 0.04 in Rain Light Rain
4:11 PM 48.2 °F - 48.2 °F 100% 29.70 in 1.2 mi SSE 5.8 mph - N/A Rain Light Rain
4:16 PM 48.2 °F - 48.2 °F 100% 29.69 in 1.5 mi SSE 5.8 mph - N/A Rain Light Rain
4:41 PM 48.2 °F - 48.2 °F 100% 29.68 in 1.4 mi SSW 4.6 mph - N/A Rain Light Rain
4:56 PM 48.0 °F - 47.5 °F 98% 29.68 in 1.6 mi SSW 3.5 mph - 0.05 in Rain Light Rain
5:01 PM 48.2 °F - 48.2 °F 100% 29.68 in 1.6 mi SW 4.6 mph - N/A Rain Light Rain
5:11 PM 48.2 °F - 48.2 °F 100% 29.67 in 1.8 mi SSW 4.6 mph - N/A Rain Rain
5:16 PM 48.2 °F - 48.2 °F 100% 29.67 in 2.0 mi SSW 4.6 mph - N/A Rain Rain
5:36 PM 48.2 °F - 48.2 °F 100% 29.66 in 3.0 mi SSW 4.6 mph - N/A Rain Rain
5:56 PM 48.0 °F - 47.5 °F 98% 29.67 in 4.0 mi WSW 4.6 mph - 0.09 in Rain Rain
6:26 PM 48.2 °F - 48.2 °F 100% 29.66 in 5.0 mi SW 5.8 mph - N/A Rain Light Rain
6:31 PM 48.2 °F - 48.2 °F 100% 29.66 in 5.0 mi SW 3.5 mph - N/A Rain Light Rain
6:36 PM 48.2 °F - 48.2 °F 100% 29.65 in 5.0 mi SW 3.5 mph - N/A Rain Light Rain
6:41 PM 48.2 °F - 48.2 °F 100% 29.65 in 4.0 mi South 4.6 mph - N/A Rain Light Rain
6:56 PM 47.8 °F - 47.3 °F 98% 29.67 in 6.0 mi SW 5.8 mph - 0.03 in Rain Light Rain
7:56 PM 48.6 °F - 47.8 °F 97% 29.65 in 6.0 mi West 5.8 mph - 0.05 in Rain Rain
8:01 PM 48.2 °F - 48.2 °F 100% 29.63 in 5.0 mi WSW 5.8 mph - N/A Rain Light Rain
8:21 PM 48.2 °F - 48.2 °F 100% 29.63 in 6.0 mi West 6.9 mph - N/A Rain Light Rain
8:41 PM 48.2 °F - 48.2 °F 100% 29.64 in 12.0 mi West 11.5 mph - N/A   Mostly Cloudy
8:51 PM 50.0 °F - 48.2 °F 94% 29.64 in 12.0 mi West 11.5 mph - N/A   Overcast
8:56 PM 49.1 °F - 47.5 °F 94% 29.65 in 12.0 mi West 11.5 mph - 0.02 in   Overcast
9:06 PM 50.0 °F - 46.4 °F 87% 29.64 in 12.0 mi West 11.5 mph - N/A   Overcast
9:56 PM 48.2 °F - 46.0 °F 92% 29.67 in 12.0 mi WNW 12.7 mph 17.3 mph N/A   Mostly Cloudy
10:31 PM 48.2 °F - 44.6 °F 87% 29.66 in 12.0 mi WNW 12.7 mph - N/A   Mostly Cloudy
10:56 PM 46.6 °F - 42.6 °F 86% 29.68 in 12.0 mi WNW 15.0 mph 21.9 mph N/A   Mostly Cloudy
11:56 PM 44.1 °F 37.4 °F 37.8 °F 78% 29.72 in 12.0 mi WNW 13.8 mph 20.7 mph N/A   Mostly Cloudy